Regional Weather Roundup
Issued by NWS

Home | Current Version | Previous Version | Graphics & Text | Print | Product List | Glossary On
Versions: 1 2 3 4 5 6 7 8 9 10 11 12 13 14 15 16 17 18 19 20 21 22 23 24 25 26 27 28 29 30 31 32 33 34 35 36 37 38 39 40 41 42 43 44 45 46 47 48 49 50
328
ASUS43 KDMX 230406
RWRIA

WEATHER ROUNDUP FOR IOWA
NATIONAL WEATHER SERVICE DES MOINES IA
1000 PM CST WED NOV 22 2017

NOTE: "FAIR" INDICATES FEW OR NO CLOUDS BELOW 12,000 FEET WITH NO
SIGNIFICANT WEATHER AND/OR OBSTRUCTIONS TO VISIBILITY.

* - THESE STATIONS ARE NOT NWS STATIONS...THUS NOT UNDER NWS
QUALITY CONTROL.  THEY ALSO DO NOT REPORT WEATHER SUCH
AS PRECIPITATION OR FOG.

IAZ001>003-012>014-020>022-031>034-043>046-230500-
   NORTHWEST IOWA

CITY           SKY/WX    TMP DP  RH WIND       PRES   REMARKS
CARROLL *      PTCLDY    34  18  51 SW20      30.00F WCI  22
CHEROKEE *     CLEAR     36  19  51 SW10      29.97F WCI  28
DENISON *      CLEAR     34  18  51 SW9G17    30.03F WCI  26
LE MARS *      CLEAR     32  21  64 S8        29.96F WCI  25
ORANGE CITY *  CLEAR     34  21  60 S9        29.95S WCI  26
SHELDON *      CLEAR     34  19  55 SW12      29.93F WCI  25
SIOUX CITY     CLEAR     30  20  66 SE8       29.99F WCI  22
SPENCER        CLEAR     28  16  60 SW6       29.96F WCI  22
STORM LAKE *   MIX PCPN  34  18  51 SW16      29.96F WCI  23
$$

IAZ055>058-069>071-079>083-090>094-230500-
   SOUTHWEST IOWA

CITY           SKY/WX    TMP DP  RH WIND       PRES   REMARKS
ATLANTIC *     CLEAR     32  19  59 SW8       30.07S WCI  25
AUDUBON *      CLEAR     34  19  55 S9        30.04F WCI  26
CLARINDA *     CLOUDY    32  19  59 S6        30.11S WCI  26
COUNCIL BLFS * CLEAR     39  19  45 SW15      30.04S WCI  31
CRESTON *      CLEAR     32  18  55 SW12      30.09S WCI  23
HARLAN  *      CLEAR     32  19  59 S12       30.08F WCI  23
LAMONI         CLEAR     31  16  54 S12       30.11F WCI  22
RED OAK *      CLOUDY    34  19  55 S10       30.08S WCI  26
SHENANDOAH *   CLEAR     36  19  51 S7        30.09S WCI  30
$$

IAZ047>049-059>061-072>074-084-230500-
   CENTRAL IOWA

CITY           SKY/WX    TMP DP  RH WIND       PRES   REMARKS
AMES           CLOUDY    34  18  52 S9        30.06F WCI  27
ANKENY *       CLOUDY    36  16  44 S12G20    30.08F WCI  27
BOONE *        CLOUDY    34  16  47 SW15G21   30.02F WCI  24
CHARITON *     CLEAR     32  16  51 S10       30.10F WCI  24
DES MOINES     CLOUDY    35  15  44 S13       30.08F WCI  26
GRINNELL*      PTCLDY    31  17  55 S9        30.10F WCI  23
KNOXVILLE *    PTCLDY    34  14  44 SW9       30.09F WCI  26
MARSHALLTOWN   CLOUDY    33  17  51 S16       30.07F WCI  23
NEWTON *       PTCLDY    32  16  51 S8        30.10F WCI  25
PELLA *        CLEAR     33  15  48 S8        30.12F WCI  26
PERRY *        CLOUDY    32  17  52 S13       30.04F WCI  23
$$

IAZ004>006-015-016-023>025-035-036-230500-
   NORTH CENTRAL IOWA

CITY           SKY/WX    TMP DP  RH WIND       PRES   REMARKS
ALGONA *       CLEAR     30  19  64 S10       29.98S WCI  21
CLARION *      CLOUDY    34  18  51 S14       30.01F WCI  24
ESTHERVILLE    CLEAR     29  17  61 SW7       29.96R WCI  22
FORT DODGE *   PTCLDY    32  17  54 S14       30.00F WCI  22
MASON CITY     CLOUDY    32  17  54 S9        30.03F WCI  24
FOREST CITY *  CLOUDY    34  19  55 S8        30.01F WCI  27
WEBSTER CITY * CLOUDY    34  18  51 S17       29.99F WCI  23
IOWA FALLS *   CLOUDY    34  18  53 S14       30.04F WCI  24
$$

IAZ007>011-017>019-026>030-037>042-050>054-066-230500-
   NORTHEAST IOWA

CITY           SKY/WX    TMP DP  RH WIND       PRES   REMARKS
CEDAR RAPIDS   CLOUDY    33  17  51 S7        30.12R WCI  27
CHARLES CITY * CLOUDY    34  16  47 S12       30.05F WCI  25
CLINTON *      CLOUDY    32  19  58 S9        30.17S WCI  24
DECORAH *      CLOUDY    32  16  51 S8G14     30.06F WCI  25
DUBUQUE        CLOUDY    30  18  60 S9        30.13S WCI  22
MONTICELLO *   CLOUDY    32  18  55 S9        30.12F WCI  24
OELWEIN *      CLOUDY    32  18  55 S10       30.09F WCI  24
WATERLOO       CLOUDY    34  15  46 S10       30.09F WCI  26
$$

IAZ064-065-067-068-078-230500-
   EAST CENTRAL IOWA

CITY           SKY/WX    TMP DP  RH WIND       PRES   REMARKS
DAVENPORT      CLOUDY    32  18  56 S8        30.18F WCI  25
IOWA CITY      CLOUDY    34  19  54 S6        30.16S WCI  29
MT. PLEASANT * CLOUDY    32  19  58 S9        30.16S WCI  24
MUSCATINE *    CLOUDY    32  21  64 S5        30.17S WCI  27
QUAD CITIES    CLOUDY    33  17  51 S7        30.16F WCI  27
$$

IAZ062-063-075>077-085>089-095>099-230500-
   SOUTHEAST IOWA

CITY           SKY/WX    TMP DP  RH WIND       PRES   REMARKS
BURLINGTON     CLOUDY    33  20  58 S10       30.16F WCI  25
FAIRFIELD *    PTCLDY    32  16  51 S7        30.13S WCI  26
FORT MADISON * PTCLDY    32  21  64 S8        30.16F WCI  25
KEOKUK *       PTCLDY    32  19  59 S8        30.17S WCI  25
OSKALOOSA *      N/A     31  17  55 SW8       30.13R WCI  24
OTTUMWA        CLEAR     32  15  49 SW9       30.13S WCI  24
WASHINGTON *   CLEAR     32  19  59 S9        30.15S WCI  24
$$

ABBREVIATIONS USED IN REMARKS
   TC - TEMPERATURES IN CELSIUS
  WCI - WIND CHILL INDEX
   HX - HEAT INDEX
  VSB - VISIBILITY
$$





USA.gov is the U.S. government's official web portal to all federal, state and local government web resources and services.